Regional Weather Roundup
Issued by NWS Albany, NY

Home | Current Version | Previous Version | Graphics & Text | Print | Product List | Glossary Off
Versions: 1 2 3 4 5 6 7 8 9 10 11 12 13 14 15 16 17 18 19 20 21 22 23 24 25 26 27 28

000
ASUS41 KALY 221010
RWRALY

NEW YORK STATE HOURLY WEATHER ROUNDUP
NATIONAL WEATHER SERVICE ALBANY NY
600 AM EDT SUN APR 22 2018

NOTE: "FAIR" INDICATES FEW OR NO CLOUDS BELOW 12,000 FEET WITH NO
SIGNIFICANT WEATHER AND/OR NO OBSTRUCTIONS TO VISIBILITY.

NYZ032-033-038>043-046>054-057>066-NYZ062>081-082-084-221100-
EAST


CITY           SKY/WX    TMP DP  RH WIND       PRES   REMARKS
ALBANY         FAIR      31  20  63 CALM      30.38R
GLENS FALLS    FAIR      25  22  88 CALM      30.38R
POUGHKEEPSIE   FAIR      28  22  78 CALM      30.38R
NEWBURGH       CLEAR     32  25  74 CALM      30.38F
MONTGOMERY     FAIR      29  23  78 S3        30.37R
WHITE PLAINS   FAIR      37  18  46 NW6       30.36R WCI  32
ISLIP          FAIR      37  26  64 NW7       30.37R WCI  32
NEW YORK CITY  FAIR      47  28  47 NW3       30.38R
CENTRAL PARK   FAIR      44  17  33 CALM      30.40S
$$

NYZ005>009-017-018-044>046-055-056-221100-
CENTRAL


CITY           SKY/WX    TMP DP  RH WIND       PRES   REMARKS
FULTON         FAIR      31  26  82 CALM      30.39R
SYRACUSE       FAIR      29  24  82 CALM      30.39S
ROME           FAIR      24  21  88 CALM      30.41R
ELMIRA         FAIR      23  20  88 SW3       30.41R
BINGHAMTON     FAIR      33  16  49 W5        30.36R WCI  29
MONTICELLO     FAIR      28  19  69 CALM      30.38R
$$

NYZ026>034-041>043-087-221100-
NORTH


CITY           SKY/WX    TMP DP  RH WIND       PRES   REMARKS
WATERTOWN      FAIR      23  23 100 CALM      30.38R
FORT DRUM      NOT AVBL
OGDENSBURG     FAIR      27  26  98 CALM      30.40R
MASSENA        FAIR      24  23  96 CALM      30.41R
SARANAC LAKE   FAIR      17  16  95 CALM      30.33R
PLATTSBURGH    FAIR      35  17  47 W5        30.37R WCI  31
$$

NYZ001>004-010>016-019>021-085-221100-
WEST


CITY           SKY/WX    TMP DP  RH WIND       PRES   REMARKS
NIAGARA FALLS  FAIR      31  25  78 CALM      30.41R
BUFFALO        FAIR      32  25  75 S5        30.41R WCI  27
DUNKIRK        FAIR      25  23  92 S3        30.41S
JAMESTOWN      FAIR      31  21  66 CALM      30.38S
WELLSVILLE     FAIR      33  21  61 CALM      30.39R
ROCHESTER      FAIR      32  27  81 SW6       30.41R WCI  26
PENN YAN       FAIR      32  24  72 SW7       30.39S WCI  26
$$

             KEY
       WCI = WIND CHILL INDEX
       VSB = VISIBILITY
       HX  = HEAT INDEX
$$




USA.gov is the U.S. government's official web portal to all federal, state and local government web resources and services.